When you browse on this site, cookies collect data to enhance your experience and personalize the content and advertising you see.
Visit our Privacy Policy to learn more. By continuing to use the site, you agree to this use of cookies and data.
  • In Österreich
  • Länderverzeichnis
  • Für 7 Tage
  • Wassertemperatur
  • Satellitenkarten
  • Wetterkarte
  • News
  • Widgets
  • user-avatar
    Anmelden

    Stündliche Wetter Kaprun

    Heute, 24 März, Sonntag

    Zeit Temperatur Niederschläge Wind Luftdruck Luftfeuchtigkeit
    00:00 0°C° 0 mm 1 m/S 599 mmHg 86%
    01:00 0°C° 0 mm 1 m/S 599 mmHg 82%
    02:00 -1°C° 0 mm 1 m/S 599 mmHg 81%
    03:00 -3°C° 0 mm 2 m/S 599 mmHg 80%
    04:00 -3°C° 0 mm 2 m/S 598 mmHg 79%
    05:00 -3°C° 0 mm 2 m/S 598 mmHg 78%
    06:00 -3°C° 0 mm 2 m/S 598 mmHg 77%
    07:00 -2°C° 0 mm 2 m/S 598 mmHg 76%
    08:00 +2°C° 0 mm 1 m/S 599 mmHg 78%
    09:00 +4°C° 0 mm 1 m/S 600 mmHg 81%
    10:00 +6°C° 0 mm 1 m/S 600 mmHg 84%
    11:00 +7°C° 0 mm 1 m/S 600 mmHg 80%
    12:00 +7°C° 0 mm 1 m/S 600 mmHg 77%
    13:00 +8°C° 0 mm 1 m/S 600 mmHg 74%
    14:00 +8°C° 0 mm 1 m/S 599 mmHg 76%
    15:00 +7°C° 0 mm 1 m/S 599 mmHg 79%
    16:00 +7°C° 0 mm 1 m/S 599 mmHg 82%
    17:00 +5°C° 0 mm 1 m/S 598 mmHg 86%
    18:00 +3°C° 0 mm 1 m/S 597 mmHg 90%
    19:00 +1°C° 0 mm 1 m/S 596 mmHg 95%
    20:00 +1°C° 0.1 mm 1 m/S 596 mmHg 95%
    21:00 +1°C° 0.1 mm 1 m/S 596 mmHg 96%
    22:00 +2°C° 0.1 mm 1 m/S 597 mmHg 97%
    23:00 +1°C° 0.1 mm 1 m/S 597 mmHg 97%

    Morgen, 25 März, Montag

    Zeit Temperatur Niederschläge Wind Luftdruck Luftfeuchtigkeit
    00:00 +1°C° 0.1 mm 1 m/S 596 mmHg 98%
    01:00 0°C° 0.1 mm 1 m/S 596 mmHg 98%
    02:00 0°C° 0 mm 1 m/S 596 mmHg 98%
    03:00 0°C° 0 mm 1 m/S 595 mmHg 98%
    04:00 -1°C° 0 mm 1 m/S 595 mmHg 98%
    05:00 -1°C° 0 mm 1 m/S 595 mmHg 98%
    06:00 -3°C° 0 mm 2 m/S 595 mmHg 97%
    07:00 -3°C° 0 mm 2 m/S 595 mmHg 97%
    08:00 -2°C° 0.1 mm 2 m/S 595 mmHg 95%
    09:00 -2°C° 0.1 mm 2 m/S 594 mmHg 92%
    10:00 -1°C° 0.1 mm 3 m/S 594 mmHg 90%
    11:00 -2°C° 0.2 mm 3 m/S 594 mmHg 90%
    12:00 -2°C° 0.2 mm 3 m/S 593 mmHg 90%
    13:00 -2°C° 0.2 mm 3 m/S 593 mmHg 90%
    14:00 -4°C° 0.5 mm 3 m/S 592 mmHg 91%
    15:00 -5°C° 0.5 mm 4 m/S 592 mmHg 92%
    16:00 -7°C° 0.5 mm 4 m/S 591 mmHg 94%
    17:00 -8°C° 0.8 mm 4 m/S 592 mmHg 94%
    18:00 -8°C° 0.8 mm 4 m/S 592 mmHg 95%
    19:00 -10°C° 0.8 mm 5 m/S 592 mmHg 96%
    20:00 -11°C° 0.4 mm 5 m/S 592 mmHg 95%
    21:00 -12°C° 0.4 mm 5 m/S 593 mmHg 95%
    22:00 -12°C° 0.4 mm 5 m/S 593 mmHg 94%
    23:00 -12°C° 0.6 mm 4 m/S 593 mmHg 94%

    übermorgen, 26 März, Dienstag

    Zeit Temperatur Niederschläge Wind Luftdruck Luftfeuchtigkeit
    00:00 -12°C° 0.6 mm 4 m/S 594 mmHg 94%
    01:00 -12°C° 0.6 mm 4 m/S 594 mmHg 94%
    02:00 -12°C° 0.1 mm 4 m/S 594 mmHg 94%
    03:00 -12°C° 0.1 mm 3 m/S 595 mmHg 94%
    04:00 -13°C° 0.1 mm 3 m/S 595 mmHg 94%
    05:00 -13°C° 0 mm 3 m/S 595 mmHg 94%
    06:00 -13°C° 0 mm 3 m/S 595 mmHg 93%
    07:00 -13°C° 0 mm 3 m/S 596 mmHg 92%
    08:00 -12°C° 0 mm 3 m/S 596 mmHg 87%
    09:00 -9°C° 0 mm 3 m/S 597 mmHg 82%
    10:00 -8°C° 0 mm 3 m/S 598 mmHg 77%
    11:00 -8°C° 0 mm 3 m/S 598 mmHg 77%
    12:00 -7°C° 0 mm 3 m/S 598 mmHg 76%
    13:00 -6°C° 0 mm 3 m/S 598 mmHg 75%
    14:00 -6°C° 0 mm 3 m/S 598 mmHg 77%
    15:00 -6°C° 0 mm 3 m/S 598 mmHg 78%
    16:00 -7°C° 0 mm 3 m/S 598 mmHg 79%
    17:00 -7°C° 0 mm 2 m/S 597 mmHg 84%
    18:00 -8°C° 0 mm 2 m/S 597 mmHg 89%
    19:00 -9°C° 0 mm 2 m/S 597 mmHg 94%
    20:00 -9°C° 0 mm 1 m/S 597 mmHg 94%
    21:00 -9°C° 0 mm 1 m/S 597 mmHg 94%
    22:00 -10°C° 0 mm 1 m/S 597 mmHg 93%
    23:00 -10°C° 0 mm 1 m/S 597 mmHg 93%

    27 März, Mittwoch

    Zeit Temperatur Niederschläge Wind Luftdruck Luftfeuchtigkeit
    00:00 -10°C° 0 mm 1 m/S 597 mmHg 92%
    01:00 -11°C° 0 mm 1 m/S 597 mmHg 91%
    02:00 -10°C° 0 mm 1 m/S 597 mmHg 90%
    03:00 -10°C° 0 mm 1 m/S 597 mmHg 88%
    04:00 -10°C° 0 mm 1 m/S 597 mmHg 87%
    05:00 -9°C° 0 mm 1 m/S 597 mmHg 86%
    06:00 -9°C° 0 mm 1 m/S 598 mmHg 86%
    07:00 -8°C° 0 mm 1 m/S 598 mmHg 85%
    08:00 -8°C° 0 mm 2 m/S 599 mmHg 84%
    09:00 -7°C° 0 mm 2 m/S 599 mmHg 82%
    10:00 -5°C° 0 mm 2 m/S 600 mmHg 80%
    11:00 -5°C° 0.1 mm 2 m/S 600 mmHg 81%
    12:00 -5°C° 0.1 mm 2 m/S 600 mmHg 81%
    13:00 -4°C° 0.1 mm 2 m/S 600 mmHg 81%
    14:00 -5°C° 0.1 mm 3 m/S 600 mmHg 82%
    15:00 -5°C° 0.1 mm 3 m/S 600 mmHg 83%
    16:00 -5°C° 0.1 mm 3 m/S 599 mmHg 84%
    17:00 -5°C° 0 mm 2 m/S 599 mmHg 88%
    18:00 -6°C° 0 mm 2 m/S 599 mmHg 92%
    19:00 -7°C° 0 mm 2 m/S 599 mmHg 96%
    20:00 -8°C° 0 mm 2 m/S 599 mmHg 95%
    21:00 -7°C° 0 mm 1 m/S 600 mmHg 95%
    22:00 -8°C° 0 mm 1 m/S 600 mmHg 95%
    23:00 -8°C° 0 mm 1 m/S 600 mmHg 94%

    28 März, Donnerstag

    Zeit Temperatur Niederschläge Wind Luftdruck Luftfeuchtigkeit
    00:00 -9°C° 0 mm 1 m/S 599 mmHg 94%
    01:00 -9°C° 0 mm 1 m/S 599 mmHg 93%
    02:00 -9°C° 0 mm 1 m/S 599 mmHg 93%
    03:00 -9°C° 0 mm 1 m/S 599 mmHg 93%
    04:00 -9°C° 0 mm 1 m/S 599 mmHg 93%
    05:00 -9°C° 0 mm 1 m/S 599 mmHg 92%
    06:00 -8°C° 0 mm 1 m/S 599 mmHg 90%
    07:00 -8°C° 0 mm 1 m/S 600 mmHg 89%
    08:00 -6°C° 0 mm 1 m/S 600 mmHg 86%
    09:00 -5°C° 0 mm 2 m/S 601 mmHg 83%
    10:00 -3°C° 0 mm 2 m/S 602 mmHg 79%
    11:00 -3°C° 0.1 mm 2 m/S 602 mmHg 80%
    12:00 -3°C° 0.1 mm 2 m/S 601 mmHg 80%
    13:00 -2°C° 0.1 mm 2 m/S 601 mmHg 81%
    14:00 -2°C° 0.1 mm 2 m/S 601 mmHg 81%
    15:00 -2°C° 0.1 mm 2 m/S 601 mmHg 82%
    16:00 -2°C° 0.1 mm 2 m/S 601 mmHg 82%
    17:00 -3°C° 0.1 mm 2 m/S 600 mmHg 87%
    18:00 -2°C° 0.1 mm 1 m/S 600 mmHg 91%
    19:00 -4°C° 0.1 mm 1 m/S 600 mmHg 95%
    20:00 -4°C° 0 mm 1 m/S 600 mmHg 95%
    21:00 -4°C° 0 mm 1 m/S 600 mmHg 95%
    22:00 -6°C° 0 mm 1 m/S 600 mmHg 95%
    23:00 -6°C° 0 mm 1 m/S 600 mmHg 94%

    29 März, Freitag

    Zeit Temperatur Niederschläge Wind Luftdruck Luftfeuchtigkeit
    00:00 -6°C° 0 mm 1 m/S 600 mmHg 94%
    01:00 -7°C° 0 mm 1 m/S 600 mmHg 93%
    02:00 -7°C° 0 mm 1 m/S 600 mmHg 92%
    03:00 -7°C° 0 mm 1 m/S 599 mmHg 91%
    04:00 -8°C° 0 mm 1 m/S 599 mmHg 90%
    05:00 -7°C° 0 mm 1 m/S 599 mmHg 88%
    06:00 -7°C° 0 mm 1 m/S 600 mmHg 86%
    07:00 -6°C° 0 mm 1 m/S 600 mmHg 84%
    08:00 -3°C° 0 mm 1 m/S 601 mmHg 78%
    09:00 -1°C° 0 mm 1 m/S 602 mmHg 72%
    10:00 +1°C° 0 mm 0 m/S 602 mmHg 66%
    11:00 +2°C° 0 mm 1 m/S 602 mmHg 65%
    12:00 +3°C° 0 mm 1 m/S 602 mmHg 64%
    13:00 +4°C° 0 mm 1 m/S 602 mmHg 64%
    14:00 +3°C° 0 mm 1 m/S 602 mmHg 66%
    15:00 +3°C° 0 mm 1 m/S 602 mmHg 69%
    16:00 +3°C° 0 mm 1 m/S 601 mmHg 71%
    17:00 +1°C° 0 mm 1 m/S 600 mmHg 78%
    18:00 -1°C° 0 mm 1 m/S 599 mmHg 84%
    19:00 -3°C° 0 mm 1 m/S 599 mmHg 90%
    20:00 -3°C° 0 mm 1 m/S 599 mmHg 88%
    21:00 -4°C° 0 mm 1 m/S 599 mmHg 86%
    22:00 -6°C° 0 mm 2 m/S 599 mmHg 84%
    23:00 -6°C° 0 mm 2 m/S 599 mmHg 84%
    Mehr zeigen